RH
76 73 65 57 39 25 18 13 10 16 23 26 29 29 29 27 25 24 23 21 22 22 21 20 19 20 19 18 22 25 25 21 21 24 24 28 31 31 32 31 31 31 27 29 26 24 22
58 80 75 68 64 51 27 19 14 11 18 25 27 30 29 29 27 25 24 23 22 22 22 21 19 19 19 19 23 22 21 20 19 22 24 27 30 30 30 31 32 33 31 27 25 23 21
37 68 77 84 83 67 55 28 18 16 12 20 25 29 30 30 29 27 25 24 23 23 23 22 20 18 18 16 18 22 20 18 18 21 23 25 27 28 29 30 30 32 31 29 27 24 22
15 32 59 62 70 79 68 56 28 21 16 13 21 27 31 32 31 29 27 26 25 25 24 23 21 18 17 16 16 18 21 21 20 22 22 21 23 27 29 30 30 33 33 33 28 28 23
12 14 28 52 63 71 80 68 56 32 20 16 14 23 29 33 33 32 29 27 26 26 25 24 22 22 20 18 16 17 18 20 22 22 22 21 23 29 33 33 35 34 36 38 36 34 33
16 15 14 18 46 62 75 87 72 54 31 23 19 14 26 34 36 34 31 29 29 27 26 25 24 23 18 18 18 18 17 18 23 25 24 23 25 29 34 39 42 38 41 39 38 39 36
14 17 18 15 22 52 62 83 90 77 57 34 25 20 17 32 38 37 34 32 31 32 32 25 25 21 20 21 18 19 20 20 23 21 23 22 27 29 34 37 37 37 39 40 39 43 42
15 16 18 20 15 21 30 60 89 94 75 62 44 31 17 21 37 39 37 34 39 41 33 30 28 25 22 24 23 20 20 20 19 20 21 24 26 29 34 35 36 37 38 38 36 40 42
19 18 18 21 22 18 16 29 70 91 88 76 68 55 28 21 29 38 38 35 39 40 37 27 24 24 23 24 21 19 19 19 20 20 23 24 20 27 33 34 34 33 37 37 37 34 35
24 24 22 21 22 24 19 22 50 80 92 90 77 71 48 32 31 31 38 39 43 45 46 26 23 19 20 22 20 17 18 18 19 20 22 22 18 22 31 32 31 31 33 34 36 40 39
27 27 26 25 26 24 25 21 21 62 92 98 88 80 65 36 32 28 33 45 47 48 62 25 22 20 20 22 20 19 16 17 18 20 22 20 24 29 30 29 29 29 32 32 34 37 38
32 29 29 30 29 28 28 27 22 22 78 97 91 84 79 49 40 29 35 54 56 66 65 29 27 24 23 22 22 22 20 18 17 20 20 20 23 29 30 29 28 27 31 32 33 37 42
32 34 32 34 33 32 32 31 27 21 32 86 99 97 95 56 43 33 45 55 75 82 32 31 32 27 26 26 25 24 22 21 23 27 24 21 21 23 28 28 29 28 35 43 44 45 47
30 32 38 40 39 39 34 33 30 27 21 54 98 99 97 64 40 51 49 57 78 48 33 27 30 30 33 31 29 25 27 26 23 24 24 26 25 22 26 31 33 33 38 44 50 49 45
33 34 38 45 47 43 39 39 38 30 22 42 88 99 98 70 40 59 61 70 53 33 32 31 34 40 36 32 31 30 27 27 25 25 26 26 26 25 28 30 31 33 39 34 44 43 45
38 40 40 43 50 42 37 40 42 36 25 42 75 98 94 80 59 64 73 74 39 29 30 33 38 36 40 34 34 31 29 22 23 24 24 27 29 28 29 33 36 32 30 38 45 51 53
39 40 43 41 44 51 36 37 43 40 32 35 77 99 96 93 76 67 84 61 38 32 30 36 37 36 37 40 35 33 30 23 23 21 26 26 29 28 32 38 34 35 33 32 35 39 46
48 45 43 38 39 54 47 40 42 46 39 42 65 95 96 94 95 69 73 42 40 38 34 31 35 34 34 36 38 36 30 25 23 24 27 27 32 35 25 28 33 33 38 35 41 40 41
69 57 52 48 45 50 51 47 50 53 48 55 75 93 98 94 94 79 50 58 50 44 36 35 32 32 32 34 36 35 35 29 28 28 30 30 34 37 34 25 21 25 31 36 35 41 46
78 71 70 68 65 64 64 63 61 58 51 66 83 98 99 98 85 61 64 61 55 46 42 37 32 32 33 30 32 34 35 39 35 35 33 31 33 34 34 26 25 27 26 27 32 43 45
92 80 75 77 80 80 79 74 69 63 58 64 88 97 96 96 95 70 59 55 58 50 40 41 39 36 37 34 32 36 33 40 42 43 38 37 39 33 29 30 30 30 29 27 28 29 37
90 89 89 84 86 88 92 84 76 65 63 78 93 95 98 95 59 60 59 50 51 46 38 39 42 35 42 42 36 33 39 40 41 48 42 44 49 42 34 33 33 32 27 29 28 28 31
98 97 96 96 97 98 96 87 77 69 71 87 98 89 87 74 78 86 63 42 41 50 47 40 38 45 47 43 42 40 43 46 49 47 45 44 48 52 44 40 43 39 32 30 31 36 37
96 97 98 99 98 98 98 88 84 76 73 88 97 84 95 96 93 67 51 53 56 52 50 45 46 47 50 54 59 57 52 46 44 46 47 51 50 53 53 58 69 32 30 35 41 42 47
93 96 97 98 98 98 97 93 83 69 72 94 91 91 84 85 76 78 80 68 66 68 63 52 46 47 53 64 70 77 74 59 46 50 50 53 60 70 68 70 49 37 39 42 51 42 47
88 96 97 97 98 98 96 79 73 52 58 91 85 83 87 84 87 79 83 79 77 71 68 62 60 58 62 68 78 87 84 64 62 52 48 54 59 69 79 84 67 34 45 47 67 65 67
91 94 97 98 98 98 95 75 58 51 54 84 94 94 94 95 89 89 79 71 74 73 72 72 72 78 76 85 93 89 84 72 68 62 65 61 67 72 69 78 58 48 54 61 74 65 74
92 90 97 98 98 98 97 86 69 66 71 86 81 77 84 87 93 86 84 84 78 78 77 74 84 83 86 92 94 91 87 75 71 57 62 72 82 77 80 90 78 54 64 73 75 78 79
91 85 97 98 97 98 98 99 87 81 81 73 81 97 97 89 92 93 91 83 80 85 86 83 81 85 89 90 94 91 92 89 79 80 78 81 72 76 82 75 69 73 86 93 88 87 83